Location: Madrid
(40.4167°N, 3.7036°W)
Time: 11:19:41
(UTC+00:00)

ISS - Pass Details

Date: 06 May 2025
Orbit: 416 x 419 km, 51.6° (Epoch: 14 May)

Event Time Altitude Azimuth Distance (km) Brightness Sun altitude
Rises 04:10:37 0° 310° (NW) 2,360 -0.1 -10.5°
Reaches altitude 10° 04:12:46 10° 317° (NW) 1,495 -1.1 -10.1°
Maximum altitude 04:16:01 45° 31° (NNE) 583 -2.5 -9.6°
Drops below altitude 10° 04:19:14 10° 106° (ESE) 1,490 -0.3 -9.1°
Sets 04:21:23 0° 113° (ESE) 2,350 0.6 -8.7°
